QIKCOM-1
1 42983U 98067NF 19017.58572314 .00002358 00000-0 37840-4 0 9993
2 42983 51.6400 23.2212 0003431 280.3349 79.7257 15.57702253 69623
AO-91
1 43017U 17073E 19017.79223606 .00000457 00000-0 41917-4 0 9998
2 43017 97.7203 305.1289 0257597 293.1552 64.2709 14.78362460 62811
EcAMSat
1 43019U 98067NG 19017.87914454 .00004409 00000-0 61171-4 0 9994
2 43019 51.6412 19.2074 0004016 255.9210 104.1337 15.59351308152025
PICSAT
1 43132U 18004X 19016.91695469 .00000760 00000-0 35156-4 0 9999
2 43132 097.5088 084.9150 0011386 073.7707 286.4782 15.23165745056242
AO-92
1 43137U 18004AC 19017.16489496 .00000626 00000-0 29535-4 0 9998
2 43137 97.5081 85.1784 0010962 74.6881 285.5566 15.23141520 56276
TianYi 2
1 43155U 18008A 19017.83803209 .00000352 00000-0 24883-4 0 9995
2 43155 97.5039 93.4651 0019094 124.3089 12.4518 15.10889783 54898
Zhou Enlai
1 43156U 18008B 19017.83474095 .00000548 00000-0 37135-4 0 9994
2 43156 97.5084 93.3819 0016356 121.3748 16.3999 15.10380102 54876
TianYi 6
1 43158U 18008D 19017.77173017 .00000098 00000-0 98861-5 0 9993
2 43158 97.5029 92.9684 0014987 118.9906 0.8574 15.10022957 54832
S-Net G
1 43186U 18014G 19017.78773264 -.00000391 00000-0 -29252-4 0 9997
2 43186 97.7181 288.3751 0011580 147.3147 212.8794 14.96568597 52418
S-Net H
1 43187U 18014H 19017.78755869 -.00000391 00000-0 -29227-4 0 9991
2 43187 97.7178 288.3670 0011584 147.2845 212.9096 14.96568528 52413
S-Net J
1 43188U 18014J 19017.78736817 -.00000375 00000-0 -27877-4 0 9995
2 43188 97.7181 288.3784 0011586 147.3863 212.8076 14.96569614 52411
S-Net K
1 43189U 18014K 19017.78764040 -.00000394 00000-0 -29533-4 0 9997
2 43189 97.7178 288.3653 0011579 147.2259 212.9683 14.96568172 50964
FMN 1
1 43192U 18015A 19017.91882162 .00001370 00000-0 59873-4 0 9996
2 43192 97.3794 147.8779 0018088 105.8246 254.4983 15.23642430 53209
Shaonian Xing
1 43199U 18015H 19017.46359156 .00001018 00000-0 44380-4 0 9991
2 43199 97.3572 146.8564 0018746 118.4993 241.8136 15.24309208 53171
1KUNS-PF
1 43466U 98067NP 19017.46510984 .00013034 00000-0 15906-3 0 9993
2 43466 51.6395 23.9188 0000520 69.1432 290.9618 15.60826549 39101
UBAKUSAT
1 43467U 98067NQ 19017.49919663 .00008834 00000-0 11621-3 0 9996
2 43467 51.6392 24.8934 0001884 199.0639 161.0283 15.59323517 39105
Irazu
1 43468U 98067NR 19017.19103146 .00014046 00000-0 16364-3 0 9996
2 43468 51.6392 24.3358 0000746 63.5145 296.5925 15.61966444139062
EnduroSat One
1 43551U 98067NZ 19017.48615687 .00011262 00000-0 15020-3 0 9994
2 43551 51.6399 27.0454 0005566 301.5944 58.4505 15.58623102 29307
EQUISat
1 43552U 98067PA 19017.32038971 .00009124 00000-0 12530-3 0 9990
2 43552 51.6404 28.1911 0005869 299.4629 60.5777 15.58113119 29235
UiTMSat 1
1 43589U 98067PD 19016.48013116 .00007942 00000-0 11112-3 0 9991
2 43589 51.6387 33.0714 0005313 306.3934 53.6567 15.57823228 24831
Maya 1
1 43590U 98067PE 19017.43961374 .00010407 00000-0 14327-3 0 9998
2 43590 51.6392 28.2311 0005486 312.5054 47.5474 15.57867701 24913
Bhutan 1
1 43591U 98067PF 19017.05052603 .00008648 00000-0 12003-3 0 9996
2 43591 51.6398 30.1334 0005576 310.8012 49.2496 15.57904980 24859
SiriusSat 1
1 43595U 98067PG 19017.22785343 .00008654 00000-0 12255-3 0 9999
2 43595 51.6390 29.8119 0002792 257.3554 102.7126 15.57363593 24050
SiriusSat 2
1 43596U 98067PH 19016.85752219 .00008358 00000-0 11930-3 0 9994
2 43596 051.6405 031.8539 0003417 259.4801 100.5806 15.57202339023993
Tanusha-3
1 43597U 98067PJ 19017.21337069 .00010750 00000-0 14802-3 0 9998
2 43597 51.6380 29.6982 0002906 279.2910 80.7753 15.57826450 24050
SurfSat
1 43614U 18070B 19017.26355582 .00001940 00000-0 53960-4 0 9999
2 43614 93.0392 300.6656 0016915 164.2428 195.9354 15.36810591 18993
CP-7 DAVE
1 43615U 18070C 19017.06855123 .00001628 00000-0 45338-4 0 9997
2 43615 93.0393 300.5856 0016954 164.8360 195.3405 15.36781155 18961
ELFIN-B
1 43616U 18070D 19017.31646984 .00002740 00000-0 75445-4 0 9997
2 43616 93.0354 300.6401 0017842 167.6024 192.5671 15.37069755 19007
ELFIN-A
1 43617U 18070E 19017.31377846 .00002772 00000-0 76286-4 0 9995
2 43617 93.0409 300.7352 0017095 163.6583 196.5225 15.37105738 19002
STARS-Me Mother
1 43640U 98067PQ 19017.20438178 .00005620 00000-0 86231-4 0 9995
2 43640 51.6400 31.1608 0004942 245.9486 114.0988 15.55959439 15968
CubeBel 1
1 43666U 18083E 19017.81723042 .00000558 00000-0 31404-4 0 9994
2 43666 97.5336 43.2488 0015524 2.3174 83.3197 15.17245737 12256
Changshagaoxin
1 43669U 18083H 19017.83986460 .00000694 00000-0 39041-4 0 9990
2 43669 97.5191 43.0329 0010809 356.1241 3.9906 15.16518979 12218
Ten-Koh
1 43677U 18084G 19017.32848850 .00000109 00000-0 17049-4 0 9999
2 43677 97.8374 132.2064 0017425 67.9491 292.3634 14.90114646 11928
Diwata-2
1 43678U 18084H 19017.85668969 -.00000348 00000-0 -29010-4 0 9997
2 43678 97.8382 132.9144 0011505 85.2261 275.0273 14.91516229 12017
IRVINE 01
1 43693U 18088D 19017.31393640 .00001836 00000-0 81353-4 0 9999
2 43693 85.0343 58.6896 0020105 38.9644 321.3042 15.20693935 10205
Reaktor Hello World
1 43743U 18096AA 19017.81963455 .00000774 00000-0 32645-4 0 9996
2 43743 97.4798 87.8680 0019257 146.8104 350.9886 15.26230244 7568
MinXSS-2
1 43758U 18099A 19017.18576533 -.00000078 00000-0 -17681-5 0 9995
2 43758 97.7632 90.9194 0016988 114.8802 245.4187 14.95284178 6647
OBJECT B
1 43759U 18099B 19017.79462946 .00000051 00000-0 99374-5 0 9993
2 43759 97.7633 91.5122 0015729 106.3426 253.9525 14.95056204 6723
OBJECT C
1 43760U 18099C 19017.86266635 .00000437 00000-0 45153-4 0 9993
2 43760 97.7625 91.5671 0015385 111.9317 248.3540 14.95037227 6745
OBJECT D
1 43761U 18099D 19017.19505424 .00000036 00000-0 85559-5 0 9992
2 43761 97.7658 90.9255 0015848 113.8991 246.3891 14.94960478 6633
OBJECT F
1 43763U 18099F 19017.84890228 -.00000182 00000-0 -11143-4 0 9996
2 43763 97.7625 91.5856 0014624 110.4509 249.8231 14.95479640 6747
OBJECT J
1 43766U 18099J 19017.88036799 .00000567 00000-0 57907-4 0 9991
2 43766 97.7622 91.5444 0012951 109.1366 251.1257 14.94437105 6740
AO-95
1 43770U 18099N 19017.20421966 .00000464 00000-0 48013-4 0 9990
2 43770 97.7636 90.8967 0016025 120.1750 240.1061 14.94658451 6647
OBJECT P
1 43771U 18099P 19016.66843854 .00000422 00000-0 44187-4 0 9996
2 43771 97.7636 90.3669 0016042 121.9449 238.3334 14.94666228 6558
OBJECT Q
1 43772U 18099Q 19017.13534229 .00000499 00000-0 51194-4 0 9993
2 43772 97.7684 90.8608 0015694 109.0130 251.2792 14.94728068 6627
OBJECT R
1 43773U 18099R 19017.40301352 .00000382 00000-0 40423-4 0 9997
2 43773 97.7585 91.0729 0015079 108.0375 252.2490 14.94723661 6666
OBJECT S
1 43774U 18099S 19017.20027667 .00000436 00000-0 45314-4 0 9994
2 43774 97.7663 90.9128 0014347 112.0100 248.2646 14.94796005 6630
OBJECT T
1 43775U 18099T 19017.19827569 .00000189 00000-0 22590-4 0 9998
2 43775 97.7644 90.9151 0016127 112.4511 247.8420 14.94853949 6629
OBJECT U
1 43776U 18099U 19017.73371894 .00000222 00000-0 25670-4 0 9994
2 43776 97.7643 91.4450 0016146 110.6254 249.6700 14.94854076 6704
OBJECT V
1 43777U 18099V 19017.40794140 .00000593 00000-0 60223-4 0 9996
2 43777 97.7592 91.0720 0017198 114.0540 246.2482 14.94409537 6661
OBJECT W
1 43778U 18099W 19017.73675268 .00000446 00000-0 46270-4 0 9995
2 43778 97.7543 91.3779 0015527 115.4842 244.7986 14.94759674 6290
OBJECT X
1 43779U 18099X 19017.19824111 .00000164 00000-0 20373-4 0 9992
2 43779 97.7644 90.9150 0016118 112.3101 247.9830 14.94853944 6627
